Dobrodošli na spletni strani vremenske postaje Senovo. Vse informacije so informativnega značaja, saj vremenska postaja ni del državne mreže meteoroloških postaj. OBVESTILO: Letni količini padavin navedeni na spletni strani je potrebno prišteti 98,1 mm, zaradi izgube podatkov.


Dež Od: 15-12-2017 00:00 Do: 23:59 Opozorilo za: Dež Stopnja: Rumena info button
Veter Od: 15-12-2017 00:00 Do: 17:59 Opozorilo za: Veter Stopnja: Rumena info button

Pogled proti Armezu več informacij Pogled proti Armezu


Lisca več informacij Lisca


Radar strel več informacij blitzortung!


opozorilo za Dež več informacij rain snow radar


Obiščite še:

Template documentation
and downloads

And another site



Weather Underground, zgodovina - Tekstovno

Dnevni povzetek za Avgust 6, 2017 Enote:  Angleško    Metrično   Obe
« Predhodni Dan
Naslednji Dan »
Dnevni Tedenski Mesečni Letni Po meri
  Višja: Nižja: Povprečje:
Temperatura: 82.6 °F 64.6 °F 75 °F
Točka rosišča: 68.4 °F 60.3 °F 63.9 °F
Vlažnost: 90 % 54 % 69 %
Hitrost vetra: 6.9 mph 0 mph 3.1 mph
Sunki vetra: 19.5 mph - -
Veter:- - ESE
Zračni tlak: 30.2 in 30 in -
Padavine: 0.36 in    
Historical Graphs
 
 
Tabelarni podarki za Avgust 6, 2017
Čas Temperatura Točka rosišča Zračni tlak Veter Hitrost vetra Sunki vetra Vlažnost Intenziteta padavin (urna)
00:02 73.6 °F 68.2 °F 30 in Calm     83 % 0 in
00:07 73.4 °F 67.8 °F 30 in Calm     83 % 0 in
00:08 72.7 °F 67.6 °F 30 in Calm     84 % 0 in
00:13 73.4 °F 68.4 °F 30 in Calm     84 % 0 in
00:18 73.2 °F 68.2 °F 30 in Calm     84 % 0 in
00:23 73.2 °F 68.2 °F 30 in Calm     84 % 0 in
00:28 73.2 °F 68.2 °F 30 in Calm     84 % 0 in
00:33 73.2 °F 68.2 °F 30 in Calm     84 % 0 in
00:38 73 °F 68.4 °F 30 in Calm     85 % 0 in
00:43 73 °F 68.4 °F 30 in Calm     85 % 0 in
00:48 73 °F 68.4 °F 30 in Calm     85 % 0 in
00:58 72.9 °F 68.2 °F 30 in Calm     85 % 0 in
01:03 72.9 °F 68.2 °F 30 in Calm     85 % 0 in
01:04 72.9 °F 68.2 °F 30 in Calm     85 % 0 in
01:09 72.7 °F 67.8 °F 30 in Calm     85 % 0 in
01:14 72.7 °F 68.2 °F 30 in Calm     86 % 0 in
01:19 72.7 °F 68.2 °F 30 in Calm     86 % 0 in
01:24 72.5 °F 68.2 °F 30 in Calm     86 % 0 in
01:29 72.3 °F 67.8 °F 30 in Calm     86 % 0 in
01:34 72.3 °F 67.8 °F 30 in Calm     86 % 0 in
01:39 72.1 °F 68.2 °F 30 in Calm     87 % 0 in
01:44 72.5 °F 68.2 °F 30 in SE 0.4 mph 3.6 mph 86 % 0 in
01:49 73.4 °F 67.8 °F 30 in ENE 2.1 mph 7.4 mph 83 % 0 in
01:54 74.7 °F 68.2 °F 30 in ENE 2.5 mph 7.4 mph 80 % 0 in
01:59 75.4 °F 67.6 °F 30 in ENE 2.1 mph 10.1 mph 77 % 0 in
02:04 76.3 °F 67.8 °F 30 in NE 2.7 mph 10.1 mph 75 % 0 in
02:09 76.8 °F 67.8 °F 30 in NE 2.5 mph 5.4 mph 74 % 0 in
02:14 77 °F 67.3 °F 30 in ENE 1.9 mph 5.4 mph 72 % 0 in
02:19 77 °F 66.9 °F 30 in East 1.5 mph 4.3 mph 71 % 0 in
02:24 77.2 °F 66.6 °F 30 in East 2 mph 5.8 mph 70 % 0 in
02:29 77.4 °F 66.4 °F 30 in ENE 3.4 mph 8.7 mph 69 % 0 in
02:34 77.4 °F 66.4 °F 30 in ENE 3.7 mph 8.7 mph 69 % 0 in
02:39 77.4 °F 66 °F 30 in ENE 3.3 mph 8.7 mph 68 % 0 in
02:44 77.4 °F 66 °F 30 in ENE 3 mph 7.4 mph 68 % 0 in
02:49 77.2 °F 65.5 °F 30 in ENE 2.1 mph 7.4 mph 67 % 0 in
02:54 77 °F 65.1 °F 30 in ESE 1.1 mph 3.8 mph 67 % 0 in
02:59 76.8 °F 64.9 °F 30 in SE 0.8 mph 3.8 mph 67 % 0 in
03:04 76.6 °F 64.9 °F 30 in ESE 1.4 mph 4.7 mph 67 % 0 in
03:14 76.6 °F 64.4 °F 30 in ENE 2.1 mph 6.3 mph 66 % 0 in
03:19 77 °F 63.3 °F 30 in ENE 3.1 mph 5.8 mph 63 % 0 in
03:24 77.2 °F 63.1 °F 30 in ENE 3.1 mph 6.3 mph 62 % 0 in
03:29 77.2 °F 62.8 °F 30 in East 3.2 mph 7.4 mph 61 % 0 in
03:34 77.4 °F 62.4 °F 30 in East 3 mph 7.4 mph 60 % 0 in
03:39 77.4 °F 62.4 °F 30 in East 3.4 mph 10.3 mph 60 % 0 in
03:44 77.2 °F 62.2 °F 30 in ESE 3.6 mph 10.3 mph 60 % 0 in
03:49 77 °F 62.1 °F 30 in ESE 2.7 mph 4.7 mph 60 % 0 in
03:54 76.8 °F 61.9 °F 30 in ESE 1.7 mph 4.5 mph 60 % 0 in
03:59 76.5 °F 62.1 °F 30 in ESE 1.6 mph 4 mph 61 % 0 in
04:04 76.3 °F 61.9 °F 30 in SSE 2.7 mph 6 mph 61 % 0 in
04:09 76.1 °F 61.7 °F 30 in South 3.2 mph 8.1 mph 61 % 0 in
04:14 75.9 °F 62.1 °F 30 in South 2.6 mph 8.1 mph 62 % 0 in
04:19 75.6 °F 62.1 °F 30 in SSE 2 mph 5.8 mph 63 % 0 in
04:24 75.2 °F 61.7 °F 30 in SSE 1.6 mph 6 mph 63 % 0 in
04:29 74.8 °F 61.9 °F 30 in South 2.1 mph 6.3 mph 64 % 0 in
04:34 74.3 °F 62.2 °F 30 in SSW 2.4 mph 6.3 mph 66 % 0 in
04:39 73.9 °F 62.2 °F 30 in SW 1.1 mph 3.6 mph 67 % 0 in
04:44 73.4 °F 62.2 °F 30 in NW 0.3 mph 2 mph 68 % 0 in
04:49 73 °F 62.2 °F 30 in NW 0.2 mph 2 mph 69 % 0 in
04:54 72.7 °F 62.2 °F 30 in Calm     70 % 0 in
04:59 72.3 °F 62.1 °F 30 in Calm     70 % 0 in
05:04 72 °F 62.1 °F 30 in West 0.2 mph 2 mph 71 % 0 in
05:09 71.6 °F 62.1 °F 30 in West 0.2 mph 2 mph 72 % 0 in
05:14 71.2 °F 62.1 °F 30 in Calm     73 % 0 in
05:20 71.1 °F 62.4 °F 30 in Calm     74 % 0 in
05:25 70.9 °F 62.6 °F 30 in Calm     75 % 0 in
05:30 70.7 °F 62.8 °F 30 in Calm     76 % 0 in
05:35 70.7 °F 62.8 °F 30 in Calm     76 % 0 in
05:40 70.5 °F 63 °F 30 in Calm     77 % 0 in
05:45 70.5 °F 63 °F 30 in Calm     77 % 0 in
05:50 70.5 °F 63 °F 30 in Calm     77 % 0 in
05:55 70.3 °F 63.1 °F 30 in Calm     78 % 0 in
06:00 70.3 °F 63.5 °F 30 in Calm     79 % 0 in
06:05 70.3 °F 63.5 °F 30 in Calm     79 % 0 in
06:10 70.2 °F 63.7 °F 30 in Calm     80 % 0 in
06:15 70.2 °F 63.3 °F 30 in Calm     79 % 0 in
06:20 70.2 °F 63.7 °F 30 in Calm     80 % 0 in
06:25 70 °F 63.5 °F 30 in Calm     80 % 0 in
06:30 70 °F 63.9 °F 30 in Calm     81 % 0 in
06:35 70 °F 63.9 °F 30 in Calm     81 % 0 in
06:40 70 °F 63.9 °F 30 in Calm     81 % 0 in
06:45 70.2 °F 64 °F 30 in Calm     81 % 0 in
06:50 70.2 °F 64.4 °F 30 in Calm     82 % 0 in
06:55 70.2 °F 64.4 °F 30 in Calm     82 % 0 in
07:00 70.3 °F 64.6 °F 30 in Calm     82 % 0 in
07:05 70.5 °F 65.1 °F 30 in Calm     83 % 0 in
07:10 70.7 °F 64.9 °F 30 in Calm     82 % 0 in
07:15 70.9 °F 65.5 °F 30 in Calm     83 % 0 in
07:20 71.1 °F 65.7 °F 30 in Calm     83 % 0 in
07:25 71.4 °F 66 °F 30 in Calm     83 % 0 in
07:30 71.6 °F 65.8 °F 30 in Calm     82 % 0 in
07:35 72 °F 66.2 °F 30 in Calm     82 % 0 in
07:40 72.3 °F 66.2 °F 30 in NNW 0.1 mph 1.3 mph 81 % 0 in
07:45 72.5 °F 66.4 °F 30 in NNW 0.1 mph 1.3 mph 81 % 0 in
07:50 72.9 °F 66.7 °F 30 in WSW 0.1 mph 1.3 mph 81 % 0 in
07:55 73.2 °F 66.7 °F 30 in WSW 0.1 mph 1.3 mph 80 % 0 in
08:00 73.6 °F 66.7 °F 30 in Calm     79 % 0 in
08:05 73.9 °F 66.9 °F 30 in SE 0.2 mph 2.2 mph 79 % 0 in
08:10 74.3 °F 66.9 °F 30 in SE 0.2 mph 2.7 mph 78 % 0 in
08:15 74.7 °F 66.9 °F 30 in SW 1 mph 3.6 mph 77 % 0 in
08:20 75 °F 66.9 °F 30 in SW 2 mph 3.6 mph 76 % 0 in
08:25 75.2 °F 66.7 °F 30 in SW 1.4 mph 2.9 mph 75 % 0 in
08:30 75.4 °F 66.6 °F 30 in SSW 1.5 mph 3.6 mph 74 % 0 in
08:35 75.6 °F 67.1 °F 30 in SW 1.7 mph 3.8 mph 75 % 0 in
08:40 75.7 °F 66.9 °F 30 in SW 2.1 mph 3.8 mph 74 % 0 in
08:45 75.9 °F 66.6 °F 30 in SSW 2.9 mph 4.9 mph 73 % 0 in
08:50 76.1 °F 67.3 °F 30 in SSW 2.8 mph 4.9 mph 74 % 0 in
08:55 76.6 °F 67.6 °F 30 in SW 3 mph 4.3 mph 74 % 0 in
09:00 77 °F 67.6 °F 30 in SW 2.8 mph 3.8 mph 73 % 0 in
09:05 77.4 °F 67.6 °F 30 in SW 2.3 mph 3.6 mph 72 % 0 in
09:10 77.9 °F 67.6 °F 30 in SW 2.5 mph 4.3 mph 71 % 0 in
09:15 78.4 °F 66.9 °F 30 in SSW 2.6 mph 4.3 mph 68 % 0 in
09:20 78.6 °F 66.4 °F 30 in South 2.1 mph 3.8 mph 66 % 0 in
09:25 79 °F 66.2 °F 30 in East 1.3 mph 3.8 mph 65 % 0 in
09:30 79.9 °F 65.7 °F 30 in East 1.8 mph 6 mph 62 % 0 in
09:35 80.4 °F 65.3 °F 30 in East 2.8 mph 6.3 mph 60 % 0 in
09:40 80.6 °F 64.9 °F 30 in East 3.3 mph 6.3 mph 59 % 0 in
09:45 80.8 °F 63.7 °F 30 in East 3.8 mph 7.4 mph 56 % 0 in
09:50 80.8 °F 62.6 °F 30 in East 4.4 mph 8.9 mph 54 % 0 in
09:55 80.8 °F 63.1 °F 30 in East 4.2 mph 8.9 mph 55 % 0 in
10:05 81 °F 63.3 °F 30 in East 2.9 mph 6.3 mph 55 % 0 in
10:10 81 °F 63.3 °F 30 in East 3.5 mph 7.8 mph 55 % 0 in
10:15 81.1 °F 63.3 °F 30 in East 4.5 mph 7.8 mph 55 % 0 in
10:21 81.1 °F 63.3 °F 30 in East 4 mph 8.5 mph 55 % 0 in
10:26 81 °F 62.8 °F 30 in East 3.6 mph 8.5 mph 54 % 0 in
10:31 81.1 °F 63.3 °F 30 in East 3.9 mph 8.7 mph 55 % 0 in
10:36 81.3 °F 63.7 °F 30 in East 4.6 mph 9.6 mph 55 % 0 in
10:41 81.3 °F 63.7 °F 30 in East 4.6 mph 10.3 mph 55 % 0 in
10:46 81.3 °F 63.7 °F 30 in East 4.3 mph 10.3 mph 55 % 0 in
10:51 81.7 °F 63.9 °F 30 in East 4 mph 8.1 mph 55 % 0 in
10:56 81.5 °F 63.9 °F 30 in East 4.4 mph 10.3 mph 55 % 0 in
11:01 81.5 °F 63.9 °F 30 in East 4.1 mph 10.3 mph 55 % 0 in
11:06 81.5 °F 63.9 °F 30 in East 3.5 mph 8.5 mph 55 % 0 in
11:11 81.9 °F 64 °F 30 in East 3.3 mph 7.2 mph 55 % 0 in
11:16 81.9 °F 64 °F 30 in East 3.8 mph 10.7 mph 55 % 0 in
11:20 82 °F 64.2 °F 30 in East 4.5 mph 10.7 mph 55 % 0 in
11:24 82 °F 64.2 °F 30 in ESE 4.5 mph 8.7 mph 55 % 0 in
11:29 82.2 °F 64.4 °F 30 in East 4.6 mph 8.7 mph 55 % 0 in
11:34 82.2 °F 64.9 °F 30 in East 5 mph 9.8 mph 56 % 0 in
11:40 82.2 °F 64.4 °F 30 in East 5.2 mph 9.8 mph 55 % 0 in
11:45 82.2 °F 64.4 °F 30 in East 4.6 mph 8.5 mph 55 % 0 in
11:50 82.4 °F 64.6 °F 30 in ENE 4.2 mph 9.2 mph 55 % 0 in
11:55 82.4 °F 65.1 °F 30 in East 4.5 mph 9.2 mph 56 % 0 in
12:00 82.2 °F 64.4 °F 30 in East 4 mph 8.1 mph 55 % 0 in
12:05 82.2 °F 65.5 °F 30 in ENE 3.9 mph 8.1 mph 57 % 0 in
12:10 82.4 °F 65.7 °F 30 in ENE 4.6 mph 17 mph 57 % 0 in
12:15 82.6 °F 65.8 °F 30 in ENE 5.2 mph 17 mph 57 % 0 in
12:20 82.4 °F 65.7 °F 30 in ENE 5.2 mph 13 mph 57 % 0 in
12:25 82.2 °F 65.5 °F 30 in East 5 mph 12.1 mph 57 % 0 in
12:30 82 °F 65.3 °F 30 in East 5.1 mph 12.1 mph 57 % 0 in
12:35 81.9 °F 65.7 °F 30 in ENE 5.2 mph 11 mph 58 % 0 in
12:40 81.9 °F 66 °F 30 in East 4.9 mph 11 mph 59 % 0 in
12:45 81.9 °F 65.7 °F 30 in East 4.4 mph 9.2 mph 58 % 0 in
12:50 81.7 °F 65.5 °F 30 in ENE 4.4 mph 9.2 mph 58 % 0 in
12:55 81.7 °F 66 °F 30 in East 5.4 mph 19.5 mph 59 % 0 in
13:00 81.5 °F 64.8 °F 30 in East 6.3 mph 19.5 mph 57 % 0 in
13:05 81.5 °F 64.8 °F 30 in ENE 5.8 mph 8.7 mph 57 % 0 in
13:10 81.5 °F 64.8 °F 30 in ENE 4.9 mph 11 mph 57 % 0 in
13:15 81.7 °F 64.9 °F 30 in ENE 4.3 mph 11 mph 57 % 0 in
13:20 81.9 °F 64.6 °F 30 in ENE 5.2 mph 13.2 mph 56 % 0 in
13:25 81.9 °F 64.6 °F 30 in East 5.8 mph 13.2 mph 56 % 0 in
13:32 82 °F 64.8 °F 30 in ENE 5.2 mph 9.8 mph 56 % 0 in
13:37 82 °F 64.2 °F 30 in ENE 5.3 mph 10.1 mph 55 % 0 in
13:42 81.9 °F 64 °F 30 in ENE 5.6 mph 11 mph 55 % 0 in
13:47 82 °F 64.2 °F 30 in ENE 5.7 mph 11 mph 55 % 0 in
13:52 82.2 °F 64.4 °F 30 in ENE 5.2 mph 10.5 mph 55 % 0 in
13:57 82.2 °F 64.4 °F 30 in East 5.4 mph 10.5 mph 55 % 0 in
14:02 82.2 °F 64.4 °F 30 in East 5.5 mph 10.5 mph 55 % 0 in
14:07 82.2 °F 64.9 °F 30 in East 5.8 mph 10.3 mph 56 % 0 in
14:13 82 °F 64.8 °F 30 in East 6.4 mph 15.4 mph 56 % 0 in
14:18 81.9 °F 64.6 °F 30 in East 6.4 mph 15.4 mph 56 % 0 in
14:23 81.9 °F 64.6 °F 30 in East 6.1 mph 12.8 mph 56 % 0 in
14:28 81.9 °F 64.6 °F 30 in East 5.3 mph 13 mph 56 % 0 in
14:33 81.5 °F 64.2 °F 30 in East 4.9 mph 13 mph 56 % 0 in
14:38 81.1 °F 63.3 °F 30 in East 5.2 mph 8.7 mph 55 % 0 in
14:43 81.1 °F 64 °F 30 in ENE 4.5 mph 13.2 mph 56 % 0 in
14:48 81 °F 63.3 °F 30 in East 4.6 mph 13.2 mph 55 % 0 in
14:53 80.6 °F 63 °F 30 in East 4.9 mph 8.7 mph 55 % 0 in
14:58 80.2 °F 62.6 °F 30 in East 5.2 mph 13.6 mph 55 % 0 in
15:03 80.1 °F 62.4 °F 30 in East 5.6 mph 13.6 mph 55 % 0 in
15:08 79.9 °F 62.8 °F 30 in East 5.5 mph 16.6 mph 56 % 0 in
15:13 79.5 °F 62.4 °F 30 in East 5.2 mph 16.6 mph 56 % 0 in
15:18 79.3 °F 62.8 °F 30 in ENE 4.4 mph 8.5 mph 57 % 0 in
15:23 79.2 °F 62.6 °F 30 in NE 3.5 mph 8.5 mph 57 % 0 in
15:24 79.2 °F 62.6 °F 30 in NE 3.4 mph 8.5 mph 57 % 0 in
15:29 79.3 °F 63.3 °F 30 in NE 3.7 mph 9.8 mph 58 % 0 in
15:34 79.5 °F 63 °F 30 in ENE 3.6 mph 9.8 mph 57 % 0 in
15:40 79.7 °F 63.1 °F 30 in ENE 3.5 mph 8.1 mph 57 % 0 in
15:43 79.7 °F 63.7 °F 30 in ENE 4.3 mph 8.1 mph 58 % 0 in
15:48 79.5 °F 63.3 °F 30 in NE 4 mph 8.1 mph 58 % 0 in
15:53 79.3 °F 63.3 °F 30 in NE 4 mph 8.5 mph 58 % 0 in
15:58 78.8 °F 62.8 °F 30 in NE 4.5 mph 8.7 mph 58 % 0 in
16:03 78.6 °F 63.1 °F 30 in NE 3.9 mph 8.7 mph 59 % 0 in
16:08 78.4 °F 63 °F 30 in ENE 3.7 mph 8.1 mph 59 % 0 in
16:13 78.4 °F 63.3 °F 30 in ENE 4 mph 8.1 mph 60 % 0 in
16:18 78.3 °F 63.1 °F 30 in East 3.1 mph 8.1 mph 60 % 0 in
16:23 78.3 °F 63.7 °F 30 in East 2.5 mph 7.6 mph 61 % 0 in
16:28 78.3 °F 63.7 °F 30 in ENE 3 mph 7.6 mph 61 % 0 in
16:29 78.3 °F 63.7 °F 30 in ENE 3 mph 7.6 mph 61 % 0 in
16:34 78.1 °F 63.5 °F 30 in ENE 2.5 mph 8.7 mph 61 % 0 in
16:39 77.7 °F 63.1 °F 30 in NNE 2.2 mph 8.7 mph 61 % 0 in
16:44 77.4 °F 62.4 °F 30 in NNE 3.1 mph 7.8 mph 60 % 0 in
16:45 77.4 °F 62.4 °F 30 in NE 3.6 mph 19.5 mph 60 % 0 in
16:50 77 °F 61.2 °F 30 in NE 5.3 mph 19.5 mph 58 % 0 in
16:55 76.6 °F 60.8 °F 30 in ENE 5.2 mph 11.2 mph 58 % 0 in
17:00 76.3 °F 60.4 °F 30 in NE 4.5 mph 10.1 mph 58 % 0 in
17:05 76.1 °F 60.3 °F 30 in NE 4.5 mph 10.1 mph 58 % 0 in
17:10 75.9 °F 61 °F 30 in ENE 5.2 mph 14.8 mph 60 % 0 in
17:16 75.6 °F 62.1 °F 30 in ENE 6.9 mph 14.8 mph 63 % 0.01 in
17:21 74.7 °F 62.1 °F 30 in ENE 6.7 mph 14.1 mph 65 % 0.01 in
17:26 74.1 °F 62.4 °F 30 in ENE 5.1 mph 15.2 mph 67 % 0.01 in
17:31 74.1 °F 62.4 °F 30 in ENE 4 mph 15.2 mph 67 % 0.01 in
17:36 74.5 °F 63.1 °F 30 in NE 3.6 mph 10.3 mph 68 % 0.01 in
17:41 75 °F 63.7 °F 30 in NE 3.4 mph 8.5 mph 68 % 0.01 in
17:46 75 °F 63.7 °F 30 in ENE 4.4 mph 11.4 mph 68 % 0.01 in
17:51 75.4 °F 64 °F 30 in ENE 4.8 mph 11.4 mph 68 % 0.01 in
17:56 75.2 °F 63.5 °F 30 in ENE 4.5 mph 7.8 mph 67 % 0.01 in
18:01 74.8 °F 62.8 °F 30 in ENE 5.2 mph 13 mph 66 % 0.01 in
18:06 74.5 °F 62.4 °F 30 in ENE 4.8 mph 13 mph 66 % 0.01 in
18:11 74.1 °F 62.1 °F 30 in NE 4.9 mph 10.5 mph 66 % 0.01 in
18:16 73.9 °F 61.9 °F 30 in ENE 4.9 mph 10.5 mph 66 % 0.01 in
18:21 73.8 °F 62.1 °F 30 in ENE 4.2 mph 9.8 mph 67 % 0 in
18:26 73.6 °F 61.9 °F 30 in NE 4.4 mph 9.8 mph 67 % 0 in
18:31 73.4 °F 61.9 °F 30 in ENE 3.3 mph 6.5 mph 67 % 0 in
18:36 73.2 °F 61.5 °F 30 in NE 2.6 mph 7.6 mph 67 % 0 in
18:41 73 °F 61.3 °F 30 in ENE 3.5 mph 7.6 mph 67 % 0 in
18:46 73 °F 61.3 °F 30 in East 4.5 mph 12.1 mph 67 % 0 in
18:51 72.9 °F 61.3 °F 30 in East 3.9 mph 12.1 mph 67 % 0 in
18:56 72.9 °F 61.3 °F 30 in ENE 4 mph 10.1 mph 67 % 0 in
18:58 72.9 °F 61.3 °F 30 in ENE 4.1 mph 10.7 mph 67 % 0 in
19:03 72.7 °F 60.6 °F 30 in ENE 5.5 mph 16.1 mph 66 % 0 in
19:08 72.7 °F 61.2 °F 30 in ENE 6.2 mph 16.1 mph 67 % 0 in
19:13 72.3 °F 61.2 °F 30 in ENE 5.4 mph 13.4 mph 68 % 0 in
19:18 72.1 °F 61 °F 30 in ENE 5.1 mph 13 mph 68 % 0 in
19:23 72.1 °F 61.3 °F 30 in ENE 5.2 mph 12.8 mph 69 % 0 in
19:28 72 °F 61.2 °F 30 in ENE 4.9 mph 12.8 mph 69 % 0 in
19:33 71.8 °F 61.5 °F 30 in East 4.5 mph 8.5 mph 70 % 0 in
19:43 71.4 °F 61.5 °F 30 in ENE 5.6 mph 8.5 mph 71 % 0 in
19:48 71.4 °F 61.5 °F 30 in ENE 6.2 mph 7.4 mph 71 % 0 in
19:53 71.2 °F 61.3 °F 30 in East 5.9 mph 13 mph 71 % 0 in
19:58 71.1 °F 61.2 °F 30 in East 5.4 mph 13 mph 71 % 0 in
20:04 70.9 °F 61 °F 30 in ENE 4.7 mph 9.8 mph 71 % 0 in
20:09 70.7 °F 60.8 °F 30 in ENE 5.2 mph 16.8 mph 71 % 0 in
20:14 70.3 °F 61 °F 30 in ENE 5.6 mph 16.8 mph 72 % 0 in
20:19 70 °F 61.3 °F 30 in ENE 6.6 mph 17.7 mph 74 % 0 in
20:24 69.8 °F 61.2 °F 30 in ENE 6.8 mph 17.7 mph 74 % 0 in
20:29 69.6 °F 61 °F 30 in NE 6.1 mph 13.4 mph 74 % 0 in
20:34 69.4 °F 60.8 °F 30 in ENE 6.1 mph 13.4 mph 74 % 0 in
20:39 69.3 °F 60.6 °F 30 in ENE 4.9 mph 12.5 mph 74 % 0 in
20:44 69.3 °F 60.6 °F 30 in ENE 4.1 mph 12.5 mph 74 % 0 in
20:49 69.1 °F 60.8 °F 30.1 in ENE 4.8 mph 19.2 mph 75 % 0 in
20:54 68.9 °F 60.6 °F 30.1 in ENE 5.5 mph 19.2 mph 75 % 0 in
20:59 68.9 °F 60.6 °F 30.1 in ENE 4.9 mph 13 mph 75 % 0 in
21:04 68.7 °F 60.4 °F 30.1 in ENE 4 mph 8.9 mph 75 % 0 in
21:09 68.9 °F 61 °F 30.1 in ENE 4.4 mph 10.5 mph 76 % 0 in
21:14 68.9 °F 61.3 °F 30.1 in East 6.3 mph 13.2 mph 77 % 0 in
21:19 68.7 °F 61.2 °F 30.1 in East 6.7 mph 15.4 mph 77 % 0 in
21:24 68.7 °F 61.2 °F 30.1 in East 5.8 mph 15.4 mph 77 % 0 in
21:29 68.5 °F 61.3 °F 30.1 in East 5.5 mph 14.8 mph 78 % 0 in
21:34 68.5 °F 61.3 °F 30.1 in East 4.9 mph 12.3 mph 78 % 0 in
21:39 68.5 °F 61.3 °F 30.1 in East 3.8 mph 11 mph 78 % 0 in
21:44 68.5 °F 61.9 °F 30.1 in ENE 4.8 mph 11 mph 79 % 0 in
21:49 68.2 °F 62.1 °F 30.1 in ENE 5.8 mph 10.1 mph 81 % 0.01 in
21:54 68 °F 61.9 °F 30.1 in East 4.9 mph 10.1 mph 81 % 0.01 in
21:59 67.6 °F 61.5 °F 30.1 in East 3.9 mph 9.2 mph 81 % 0.02 in
22:04 67.5 °F 61.9 °F 30.1 in NE 3.7 mph 6.5 mph 82 % 0.02 in
22:09 67.3 °F 61.5 °F 30.1 in ENE 3.3 mph 5.4 mph 82 % 0.02 in
22:14 67.3 °F 61.5 °F 30.1 in East 2.4 mph 4.9 mph 82 % 0.02 in
22:19 67.1 °F 62.1 °F 30.1 in West 2.4 mph 6 mph 84 % 0.03 in
22:24 66.9 °F 62.2 °F 30.1 in SSE 2.6 mph 6 mph 85 % 0.04 in
22:29 66.7 °F 61.7 °F 30.1 in ENE 3.5 mph 12.8 mph 84 % 0.12 in
22:30 66.7 °F 61.7 °F 30.1 in ENE 3.4 mph 12.8 mph 84 % 0.13 in
22:35 66.6 °F 61.9 °F 30.1 in ENE 4 mph 12.8 mph 85 % 0.18 in
22:40 66.4 °F 62.1 °F 30.1 in ENE 3.5 mph 6 mph 86 % 0.19 in
22:42 66.4 °F 62.1 °F 30.1 in ENE 4.3 mph 9.8 mph 86 % 0.2 in
22:47 66.2 °F 61.9 °F 30.1 in ENE 4.6 mph 10.7 mph 86 % 0.19 in
22:52 66.2 °F 61.5 °F 30.1 in NNE 5.2 mph 10.7 mph 85 % 0.22 in
22:57 66 °F 61.3 °F 30.1 in NNW 4.4 mph 10.5 mph 85 % 0.23 in
23:02 65.8 °F 61.5 °F 30.1 in SSW 3.8 mph 6.3 mph 86 % 0.23 in
23:07 65.8 °F 61.9 °F 30.1 in SSE 4.3 mph 8.7 mph 87 % 0.23 in
23:12 65.7 °F 61.3 °F 30.1 in ESE 3.6 mph 8.7 mph 86 % 0.25 in
23:17 65.5 °F 61.5 °F 30.1 in East 3.3 mph 8.1 mph 87 % 0.28 in
23:22 65.5 °F 61.5 °F 30.1 in East 3.6 mph 8.1 mph 87 % 0.28 in
23:27 65.5 °F 61.5 °F 30.1 in ESE 3.6 mph 6.5 mph 87 % 0.24 in
23:32 65.3 °F 61.3 °F 30.1 in SSE 3.9 mph 6.5 mph 87 % 0.16 in
23:42 65.1 °F 61.9 °F 30.2 in SSW 3.8 mph 7.4 mph 89 % 0.13 in
23:47 64.8 °F 61.3 °F 30.2 in SSW 1.4 mph 4.9 mph 89 % 0.13 in
23:52 64.8 °F 61.9 °F 30.2 in SW 0.1 mph 2.7 mph 90 % 0.11 in
23:57 64.6 °F 61.3 °F 30.2 in SW 1.3 mph 3.1 mph 89 % 0.1 in
Vremenska postaja Senovo
Podatki zbrani iz Weather Underground - 3 mb

Script developed by  Jim McMurry - jmcmurry@mwt.net Adapted for the template by  Wim van der Kuil - Leuven-Template.eu

Vremenski podatki so objavljeni na:

WeatherCloud

Weather Underground

AWEKAS

HAMweather, WeatherForYou, PWS Weather

MapView

Geostik

Slovenia weather network

Oprema, ki se uporablja:

Vremenski program
Cumulus

Cumulus